ELECTRON R/B

Last updated on Feb. 23, 2020, 12:02 a.m. UTC

1 45112U 20007C   20053.33036300  .15942269  39088-5  27488-3 0  9993
2 45112  69.9568  91.5449 0033620 210.3396 150.4152 16.44080468   603

Satellite is not in orbit.